FW3611 Weather Reports


time (UTC)temp
C
wind
direction
speed
KPH
gust
KPH
rain 1hr
cm
rain 24hr
cm
rain mn
cm
humidity
%
barometer
mb
20260506134159 23 232 6.4 14.5 0.00 0.00 0.00 70 1017.3
20260506133701 22 182 6.4 12.9 0.00 0.00 0.00 71 1017.2
20260506133200 22 178 8.0 12.9 0.00 0.00 0.00 72 1017.2
20260506132659 22 217 8.0 14.5 0.00 0.00 0.00 71 1017.2
20260506132157 22 213 8.0 17.7 0.00 0.00 0.00 71 1017.0
20260506131658 22 208 8.0 17.7 0.00 0.00 0.00 72 1016.9
20260506131158 22 225 8.0 14.5 0.00 0.00 0.00 73 1016.9
20260506130659 21 176 6.4 11.3 0.00 0.00 0.00 72 1016.9
20260506130159 21 200 6.4 12.9 0.00 0.00 0.00 74 1016.7
20260506125708 21 177 6.4 16.1 0.00 0.00 0.00 74 1016.6
20260506125157 21 198 6.4 16.1 0.00 0.00 0.00 75 1016.6
20260506124659 20 185 4.8 9.7 0.00 0.00 0.00 76 1016.7
20260506124159 20 123 4.8 12.9 0.00 0.00 0.00 77 1016.7
20260506123703 19 188 4.8 12.9 0.00 0.00 0.00 78 1016.6
20260506122707 19 189 4.8 11.3 0.00 0.00 0.00 79 1016.8
20260506122158 18 196 4.8 9.7 0.00 0.00 0.00 80 1016.8
20260506120657 17 182 1.6 6.4 0.00 0.00 0.00 86 1016.6
20260506120212 17 182 0.0 3.2 0.00 0.00 0.00 87 1016.6
20260506115658 17 182 0.0 3.2 0.00 0.00 0.00 88 1016.4
20260506115158 16 182 0.0 0.0 0.00 0.00 0.00 88 1016.4
20260506114657 16 182 0.0 0.0 0.00 0.00 0.00 89 1016.4
20260506113657 16 182 0.0 0.0 0.00 0.00 0.00 90 1016.2
20260506113157 16 182 0.0 0.0 0.00 0.00 0.00 90 1016.2
20260506112658 16 182 0.0 0.0 0.00 0.00 0.00 90 1016.2
20260506112157 15 182 0.0 0.0 0.00 0.00 0.00 90 1016.1
20260506111657 15 182 0.0 0.0 0.00 0.00 0.00 90 1016.1
20260506110659 15 182 0.0 0.0 0.00 0.00 0.00 89 1016.2
20260506110159 15 182 0.0 0.0 0.00 0.00 0.00 89 1016.1
20260506105156 15 182 0.0 0.0 0.00 0.00 0.00 88 1016.0
20260506104658 15 182 0.0 0.0 0.00 0.00 0.00 88 1015.9
20260506104155 15 182 0.0 0.0 0.00 0.00 0.00 88 1015.7
20260506103151 15 182 0.0 0.0 0.00 0.00 0.00 87 1015.6
20260506102147 15 182 0.0 0.0 0.00 0.00 0.00 86 1015.5
20260506101651 15 182 0.0 0.0 0.00 0.00 0.00 86 1015.5
20260506101152 15 182 0.0 0.0 0.00 0.00 0.00 86 1015.5
20260506100651 15 182 0.0 0.0 0.00 0.00 0.00 86 1015.5
20260506100200 16 182 0.0 0.0 0.00 0.00 0.00 85 1015.6
20260506095637 16 182 0.0 0.0 0.00 0.00 0.00 85 1015.6
20260506095138 16 182 0.0 0.0 0.00 0.00 0.00 85 1015.6
20260506094636 16 182 0.0 0.0 0.00 0.00 0.00 84 1015.6
20260506094135 16 182 0.0 0.0 0.00 0.00 0.00 84 1015.7
20260506093634 16 182 0.0 0.0 0.00 0.00 0.00 84 1015.7
20260506092137 16 182 0.0 1.6 0.00 0.00 0.00 84 1015.6
20260506091630 16 182 0.0 1.6 0.00 0.00 0.00 84 1015.6
20260506091130 16 182 0.0 1.6 0.00 0.00 0.00 84 1015.6
20260506090627 16 182 0.0 1.6 0.00 0.00 0.00 84 1015.6
20260506085623 16 182 0.0 0.0 0.00 0.00 0.00 84 1015.6
20260506085123 16 182 0.0 0.0 0.00 0.00 0.00 83 1015.6
20260506084621 16 182 0.0 0.0 0.00 0.00 0.00 83 1015.7
20260506084119 17 182 0.0 0.0 0.00 0.00 0.00 83 1015.6
20260506083624 17 182 0.0 0.0 0.00 0.00 0.00 83 1015.6
20260506083118 17 182 0.0 0.0 0.00 0.00 0.00 82 1015.6
20260506082614 17 182 0.0 0.0 0.00 0.00 0.00 82 1015.5
20260506082118 17 182 0.0 0.0 0.00 0.00 0.00 82 1015.6
20260506081614 17 182 0.0 0.0 0.00 0.00 0.00 81 1015.7
20260506080611 17 182 0.0 0.0 0.00 0.00 0.00 80 1015.8
20260506073041 18 182 1.6 4.8 0.00 0.00 0.00 78 1015.6
20260506072035 18 183 1.6 6.4 0.00 0.00 0.00 77 1015.5
20260506071535 18 184 1.6 8.0 0.00 0.00 0.00 77 1015.5
20260506071040 18 184 1.6 8.0 0.00 0.00 0.00 77 1015.5
20260506070533 18 183 3.2 6.4 0.00 0.00 0.00 77 1015.5
20260506062032 18 188 1.6 11.3 0.00 0.00 0.00 78 1015.9
20260506061533 18 173 1.6 6.4 0.00 0.00 0.00 78 1015.7
20260506061040 18 181 1.6 11.3 0.00 0.00 0.00 77 1015.8
20260506060522 18 181 3.2 11.3 0.00 0.00 0.00 78 1015.8
20260506051005 18 182 3.2 8.0 0.00 0.00 0.00 78 1016.4
20260506050507 18 174 1.6 8.0 0.00 0.00 0.00 77 1016.4
20260506044458 19 176 1.6 8.0 0.00 0.00 0.00 77 1016.5
20260506043952 19 176 1.6 8.0 0.00 0.00 0.00 77 1016.4
20260506043446 19 152 1.6 9.7 0.00 0.00 0.00 76 1016.4
20260506042445 19 162 1.6 9.7 0.00 0.00 0.00 76 1016.4
20260506041448 19 168 1.6 6.4 0.00 0.00 0.00 76 1016.4
20260506040945 19 158 1.6 8.0 0.00 0.00 0.00 75 1016.6
20260506035941 19 158 1.6 11.3 0.00 0.00 0.00 75 1016.6
20260506035444 19 171 1.6 3.2 0.00 0.00 0.00 75 1016.6
20260506034953 19 171 1.6 4.8 0.00 0.00 0.00 75 1016.5
20260506034442 19 171 1.6 8.0 0.00 0.00 0.00 74 1016.5
20260506033944 20 158 1.6 8.0 0.00 0.00 0.00 74 1016.6
20260506033437 20 121 1.6 4.8 0.00 0.00 0.00 73 1016.7
20260506032933 20 121 1.6 4.8 0.00 0.00 0.00 73 1016.8
20260506032431 20 121 1.6 4.8 0.00 0.00 0.00 73 1016.7
20260506031929 20 121 0.0 9.7 0.00 0.00 0.00 73 1016.6
20260506030927 20 153 1.6 6.4 0.00 0.00 0.00 71 1016.6
20260506030427 20 146 1.6 4.8 0.00 0.00 0.00 71 1016.6
20260506025934 20 144 1.6 8.0 0.00 0.00 0.00 71 1016.6
20260506024943 20 194 1.6 6.4 0.00 0.00 0.00 70 1016.8
20260506024429 20 108 1.6 6.4 0.00 0.00 0.00 70 1016.7
20260506023925 20 166 1.6 6.4 0.00 0.00 0.00 70 1016.7
20260506023426 20 120 1.6 4.8 0.00 0.00 0.00 69 1016.7
20260506022925 20 121 1.6 6.4 0.00 0.00 0.00 69 1016.6
20260506022425 21 173 1.6 6.4 0.00 0.00 0.00 68 1016.5
20260506020417 21 146 1.6 8.0 0.00 0.00 0.00 67 1016.3
20260506015917 21 166 1.6 8.0 0.00 0.00 0.00 67 1016.3
20260506015417 21 160 1.6 8.0 0.00 0.00 0.00 66 1016.2
20260506014925 21 139 1.6 8.0 0.00 0.00 0.00 66 1016.2
20260506014415 21 148 1.6 8.0 0.00 0.00 0.00 66 1016.1
20260506013916 21 161 1.6 6.4 0.00 0.00 0.00 65 1016.0
20260506012914 22 131 1.6 9.7 0.00 0.00 0.00 65 1015.9
20260506012413 22 148 1.6 8.0 0.00 0.00 0.00 64 1015.8
20260506011922 22 154 1.6 8.0 0.00 0.00 0.00 64 1015.6
20260506011418 22 145 1.6 8.0 0.00 0.00 0.00 63 1015.5
20260506010409 22 157 1.6 9.7 0.00 0.00 0.00 63 1015.5
20260506005407 22 148 1.6 9.7 0.00 0.00 0.00 61 1015.5
20260506004906 23 151 1.6 9.7 0.00 0.00 0.00 61 1015.4
20260506004408 23 128 3.2 11.3 0.00 0.00 0.00 61 1015.4
20260506003905 23 124 3.2 11.3 0.00 0.00 0.00 60 1015.4
20260506003406 23 145 3.2 12.9 0.00 0.00 0.00 59 1015.2
20260506001904 24 176 3.2 17.7 0.00 0.00 0.00 56 1014.9
20260506001412 24 144 3.2 9.7 0.00 0.00 0.00 55 1014.8
20260506000908 25 162 3.2 17.7 0.00 0.00 0.00 54 1014.7
20260506000405 25 69 3.2 17.7 0.00 0.00 0.00 53 1014.6
20260505235905 25 69 3.2 9.7 0.00 0.00 0.00 52 1014.6
20260505235404 25 72 3.2 9.7 0.00 0.00 0.00 52 1014.6
20260505234903 26 157 3.2 9.7 0.00 0.00 0.00 51 1014.5
20260505234403 26 67 3.2 11.3 0.00 0.00 0.00 51 1014.5
20260505233904 26 167 3.2 11.3 0.00 0.00 0.00 51 1014.5
20260505232904 27 145 3.2 11.3 0.00 0.00 0.00 49 1014.4
20260505232400 27 69 3.2 11.3 0.00 0.00 0.00 48 1014.5
20260505231857 27 161 3.2 11.3 0.00 0.00 0.00 47 1014.4
20260505231401 28 136 1.6 6.4 0.00 0.00 0.00 44 1014.4
20260505230857 28 127 1.6 6.4 0.00 0.00 0.00 41 1014.4
20260505230357 28 182 3.2 9.7 0.00 0.00 0.00 41 1014.5
20260505225358 29 177 3.2 8.0 0.00 0.00 0.00 39 1014.6
20260505224855 29 176 3.2 9.7 0.00 0.00 0.00 40 1014.5
20260505223855 29 103 3.2 9.7 0.00 0.00 0.00 39 1014.5
20260505223353 29 157 3.2 9.7 0.00 0.00 0.00 38 1014.6
20260505222854 29 130 3.2 8.0 0.00 0.00 0.00 38 1014.5
20260505221848 29 183 4.8 11.3 0.00 0.00 0.00 38 1014.5
20260505221341 29 171 6.4 12.9 0.00 0.00 0.00 39 1014.4
20260505220335 29 197 8.0 17.7 0.00 0.00 0.00 38 1014.2
20260505215835 29 114 8.0 17.7 0.00 0.00 0.00 37 1014.3
20260505214834 29 173 6.4 16.1 0.00 0.00 0.00 39 1014.5
20260505214331 29 135 8.0 17.7 0.00 0.00 0.00 39 1014.4
20260505213829 29 163 8.0 17.7 0.00 0.00 0.00 37 1014.5
20260505213329 29 160 4.8 12.9 0.00 0.00 0.00 40 1014.4
20260505212329 29 21 4.8 11.3 0.00 0.00 0.00 37 1014.5
20260505211836 29 178 3.2 11.3 0.00 0.00 0.00 37 1014.5
20260505211334 29 237 6.4 16.1 0.00 0.00 0.00 37 1014.5
20260505210827 29 185 6.4 16.1 0.00 0.00 0.00 36 1014.5
20260505210325 29 173 4.8 16.1 0.00 0.00 0.00 39 1014.6
20260505205825 29 114 6.4 20.9 0.00 0.00 0.00 39 1014.7
20260505204826 29 142 4.8 25.7 0.00 0.00 0.00 38 1014.7
20260505204326 28 230 4.8 14.5 0.00 0.00 0.00 37 1014.7
20260505203825 30 164 4.8 11.3 0.00 0.00 0.00 35 1014.9
20260505203326 29 105 4.8 12.9 0.00 0.00 0.00 39 1014.9
20260505202325 29 112 6.4 22.5 0.00 0.00 0.00 38 1014.9
20260505201325 28 116 3.2 9.7 0.00 0.00 0.00 40 1015.0
20260505200824 28 61 3.2 9.7 0.00 0.00 0.00 40 1015.1
20260505200325 28 58 1.6 8.0 0.00 0.00 0.00 38 1015.1
20260505195825 28 141 4.8 16.1 0.00 0.00 0.00 40 1015.3
20260505195327 28 144 4.8 19.3 0.00 0.00 0.00 40 1015.3
20260505194817 28 171 6.4 19.3 0.00 0.00 0.00 39 1015.4
20260505194317 28 174 8.0 20.9 0.00 0.00 0.00 38 1015.6
20260505193818 28 126 6.4 20.9 0.00 0.00 0.00 38 1015.7
20260505193317 28 148 4.8 14.5 0.00 0.00 0.00 40 1015.8
20260505192819 28 198 4.8 14.5 0.00 0.00 0.00 41 1016.0
20260505191816 27 176 3.2 9.7 0.00 0.00 0.00 41 1016.2
20260505191317 28 172 4.8 14.5 0.00 0.00 0.00 39 1016.2
20260505190813 28 110 4.8 14.5 0.00 0.00 0.00 42 1016.3
20260505190312 28 164 3.2 12.9 0.00 0.00 0.00 42 1016.4
20260505185815 28 87 3.2 6.4 0.00 0.00 0.00 41 1016.3
20260505184313 27 224 6.4 14.5 0.00 0.00 0.00 39 1016.3
20260505183814 27 225 8.0 16.1 0.00 0.00 0.00 42 1016.4
20260505183312 27 181 8.0 16.1 0.00 0.00 0.00 41 1016.5
20260505182809 27 189 4.8 16.1 0.00 0.00 0.00 42 1016.4
20260505182307 28 83 3.2 16.1 0.00 0.00 0.00 44 1016.5
20260505181806 27 133 3.2 11.3 0.00 0.00 0.00 43 1016.7
20260505181305 27 130 4.8 14.5 0.00 0.00 0.00 41 1016.7
20260505180804 27 193 4.8 14.5 0.00 0.00 0.00 41 1016.7
20260505180305 27 150 3.2 11.3 0.00 0.00 0.00 43 1016.8
20260505175818 27 110 4.8 9.7 0.00 0.00 0.00 46 1016.9
20260505174752 27 151 3.2 14.5 0.00 0.00 0.00 43 1016.9
20260505174252 28 218 3.2 11.3 0.00 0.00 0.00 42 1016.9
20260505172750 27 164 8.0 20.9 0.00 0.00 0.00 44 1017.0
20260505172252 27 216 8.0 22.5 0.00 0.00 0.00 43 1017.0
20260505171240 27 73 4.8 16.1 0.00 0.00 0.00 46 1017.0
20260505170803 27 85 4.8 16.1 0.00 0.00 0.00 46 1016.9
20260505170240 27 191 4.8 11.3 0.00 0.00 0.00 47 1017.0
20260505165241 27 117 6.4 16.1 0.00 0.00 0.00 48 1017.2
20260505164738 27 144 6.4 12.9 0.00 0.00 0.00 47 1017.3
20260505164233 26 110 4.8 12.9 0.00 0.00 0.00 53 1017.3
20260505163732 26 165 4.8 17.7 0.00 0.00 0.00 50 1017.5
20260505162732 26 165 4.8 14.5 0.00 0.00 0.00 49 1017.4
20260505162230 26 166 3.2 14.5 0.00 0.00 0.00 54 1017.5
20260505161731 25 162 4.8 16.1 0.00 0.00 0.00 58 1017.6
20260505161231 25 169 9.7 16.1 0.00 0.00 0.00 55 1017.6
20260505160730 26 200 9.7 19.3 0.00 0.00 0.00 55 1017.6
20260505160232 25 168 8.0 19.3 0.00 0.00 0.00 55 1017.6
20260505153235 25 188 6.4 16.1 0.00 0.00 0.00 57 1017.9
20260505152235 25 154 8.0 16.1 0.00 0.00 0.00 60 1018.0
20260505151733 25 185 6.4 12.9 0.00 0.00 0.00 58 1018.0
20260505151229 25 175 8.0 16.1 0.00 0.00 0.00 61 1017.9
20260505150230 24 191 6.4 14.5 0.00 0.00 0.00 61 1017.9
20260505140214 23 167 4.8 14.5 0.00 0.00 0.00 64 1017.8